User: anonymous   Login
Location: Huntington Beach
(33.6600°N, 117.9980°W)
Time: 00:49:36
(UTC-07:00)
Language:

SL-16 R/B - Orbit

View from above orbital plane
View from above orbital plane
View from above satellite
View from above satellite

Ground track
Ground track

The orbit data is extracted from the following two-line orbital elements,

1 28353U 04021B   15090.87397728 -.00000159  00000-0 -58556-4 0  9994
2 28353 071.0015 333.5572 0005842 323.2271 036.8450 14.14117726557887
Epoch (UTC): 31 March 2015 20:58:31
Eccentricity: 0.0005842
inclination: 71.0015°
perigee height: 841 km
apogee height: 849 km
right ascension of ascending node: 333.5572°
argument of perigee: 323.2271°
revolutions per day: 14.14117726
mean anomaly at epoch: 36.8450°
orbit number at epoch: 55788

The dashed part of the orbit path shows where the satellite is in the earth's shadow,  

DLR